DELTA 1 DEB, 7034

Orbit data source: Space-Track

DELTA 1 DEB, 7034 is space debris in SSO originally from a launch on Tue, 06 Nov 1973 UTC launched from the Air Force Western Test Range (AFWTR). Debris objects in space refer to the collection of defunct objects orbiting the Earth. Examples of debris include non-operational satellites, rocket bodies, and fragments generated from explosions, collisions, or faulty payload assembly.

Loading next visibility...
DELTA 1 DEB details
Identifier
7034, 1973-086AA
Orbit
SSO
Last TLE update13 hours ago
Origin
Flag of USGSFC (US)
ManufacturerUnknown
MissionSpacecraft
Bus & MotorUnknown
MassUnknown
Launch date (UTC)
1973-11-06 (51 years ago)
Launch vehicleUnknown
Launch site
Air Force Western Test Range (AFWTR)
Object type
Payload
Rocket body
Debris
Shape & HBRUnknown
Radar Cross SectionSmall (<0.1 m²)

Expand to show TLE details & history

TLE from 13 hours ago
0 DELTA 1 DEB
1  7034U 73086AA  24360.92904312  .00000062  00000-0  76882-3 0  9995
2  7034 102.0538 331.5861 0016387 295.6468 134.4706 12.43786499319312
Epoch: 2024-12-25T22:17Z
Definitive object data (Epoch: 2024-12-25T22:17:49.325Z)
Latitude67.07015°
Longitude-127.93853°
Altitude1,511.059 km
Speed7.111 km/s
True Right ascension20h 05m 43s
True Declination66° 57' 30"
Sunlit
Object was in daylight at TLE epoch
Visualization TLE readout
Latitude-8.19609°
Longitude-95.48773°
Altitude1,487.568 km
Speed7.123 km/s
Apparent Right ascension22h 26m 46s
Apparent Declination-22° 16' 34"
Sunlit
Object is in daylight
Visualization observer readout
Local Sidereal Time10:44:40
Azimuth13.471° NNE
Elevation-71.956°
Doppler factor1
Orbital elements
Apogee altitude1,501.056 km
Perigee altitude1,475.275 km
Semi-major axis7,866.302 km
Eccentricity0.0016387
Inclination102.0538°
RAAN331.5861°
Arg. of periapsis295.6468°
True anomaly134.60441°
Mean anomaly134.4706°
Eccentric anomaly134.53752°
Mean motion3.11091 °/min
BSTAR0.00076882
Orbital period115.72 mins
Loading maneuver chart data...
Loading historical data...
Loading historical data...
Loading historical data...
Loading historical data...
Loading historical data...
Loading historical data...
Loading historical data...

DELTA 1 DEB Visibility forecast

Observer location: undefined°, undefined

Span
Click to sort rows by Start time (UTC) header in descending order
Start Az.
Max El. time (UTC)
Max El. Az.
Max El.
End time (UTC)
End Az.
15 mins2024-12-26 12:02:19.858Z7.801° NNE2024-12-26 12:09:19.858Z306.826° NW38.868°2024-12-26 12:17:19.858Z223.385° SW
4 mins2024-12-26 14:00:19.858Z325.066° NNW2024-12-26 14:01:19.858Z317.765° NNW12.091°2024-12-26 14:04:19.858Z296.511° NW
14 mins2024-12-26 21:13:19.858Z129.678° SE2024-12-26 21:19:19.858Z64.884° ENE37.707°2024-12-26 21:27:19.858Z352.132° N
13 mins2024-12-26 23:07:19.858Z204.184° SW2024-12-26 23:13:19.858Z264.532° W31.08°2024-12-26 23:20:19.858Z324.707° NNW
7 mins2024-12-27 09:23:19.858Z68.65° E2024-12-27 09:26:19.858Z91.819° ESE14.972°2024-12-27 09:30:19.858Z121.25° SE
10 mins2024-12-27 11:13:19.858Z19.777° NNE2024-12-27 11:20:19.858Z60.464° ENE44.501°2024-12-27 11:23:19.858Z188.513° SSW
|